TimeEST,TemperatureF,Dew PointF,Humidity,Sea Level PressureIn,VisibilityMPH,Wind Direction,Wind SpeedMPH,Gust SpeedMPH,PrecipitationIn,Events,Conditions,WindDirDegrees,DateUTC
12:53 AM,42.1,34.0,73,30.27,10.0,Calm,Calm,-,N/A,,Clear,0,2012-11-11 05:53:00
1:53 AM,41.0,34.0,76,30.27,10.0,Calm,Calm,-,N/A,,Clear,0,2012-11-11 06:53:00
2:53 AM,41.0,34.0,76,30.26,10.0,Calm,Calm,-,N/A,,Clear,0,2012-11-11 07:53:00
3:53 AM,39.9,34.0,79,30.27,10.0,Calm,Calm,-,N/A,,Clear,0,2012-11-11 08:53:00
4:53 AM,39.0,33.1,79,30.30,10.0,Calm,Calm,-,N/A,,Clear,0,2012-11-11 09:53:00
5:53 AM,37.0,33.1,86,30.31,10.0,Calm,Calm,-,N/A,,Clear,0,2012-11-11 10:53:00
6:53 AM,36.0,32.0,86,30.35,10.0,Calm,Calm,-,N/A,,Clear,0,2012-11-11 11:53:00
7:53 AM,37.9,34.0,86,30.39,10.0,Calm,Calm,-,N/A,,Clear,0,2012-11-11 12:53:00
8:53 AM,46.9,37.9,71,30.40,10.0,Calm,Calm,-,N/A,,Clear,0,2012-11-11 13:53:00
9:53 AM,55.9,39.0,53,30.39,10.0,Calm,Calm,-,N/A,,Clear,0,2012-11-11 14:53:00
11:53 AM,68.0,33.1,27,30.32,10.0,Calm,Calm,-,N/A,,Clear,0,2012-11-11 16:53:00
12:53 PM,70.0,32.0,25,30.28,10.0,SSW,3.5,-,N/A,,Clear,200,2012-11-11 17:53:00
1:53 PM,73.0,30.9,21,30.25,10.0,SW,6.9,-,N/A,,Clear,220,2012-11-11 18:53:00
2:53 PM,73.9,30.9,21,30.23,10.0,Variable,4.6,-,N/A,,Clear,0,2012-11-11 19:53:00
3:53 PM,72.0,33.1,24,30.23,10.0,SW,3.5,-,N/A,,Clear,230,2012-11-11 20:53:00
4:53 PM,68.0,33.1,27,30.24,10.0,Calm,Calm,-,N/A,,Clear,0,2012-11-11 21:53:00
5:53 PM,66.0,30.0,26,30.24,10.0,Calm,Calm,-,N/A,,Clear,0,2012-11-11 22:53:00
6:53 PM,66.9,30.9,26,30.25,10.0,SSE,9.2,-,N/A,,Clear,160,2012-11-11 23:53:00
7:53 PM,64.9,33.1,31,30.25,10.0,SSE,8.1,-,N/A,,Clear,160,2012-11-12 00:53:00
8:53 PM,63.0,34.0,34,30.25,10.0,South,5.8,-,N/A,,Clear,170,2012-11-12 01:53:00
9:53 PM,63.0,34.0,34,30.25,10.0,South,11.5,18.4,N/A,,Clear,180,2012-11-12 02:53:00
10:53 PM,61.0,36.0,39,30.24,10.0,South,8.1,-,N/A,,Clear,190,2012-11-12 03:53:00
11:53 PM,59.0,37.0,44,30.23,10.0,SSE,5.8,-,N/A,,Clear,160,2012-11-12 04:53:00